Flag for Malaysia Weather past 2 weeks in Kuching, Malaysia

Now
82 °F

Passing clouds.


Feels Like: 89 °F
Forecast: 79 / 95 °F
Wind: 3 mph from West

Location: Kuching Airport

Current Time: Jul 26, 2014 at 12:47:22 AM

Latest Report: Jul 26, 2014 at 12:00 AM


Visibility: 5 mi

Pressure: 29.86 "Hg

Humidity: 79%

Dew point: 75 °F

Location of KuchingLocation

Historic Weather in Kuching — Graph

°F

Kuching temperature yesterday

Maximum temperature yesterday: 95 °F (at 2:00 PM)
Minimum temperature yesterday: 75 °F (at 6:00 AM)
Average temperature yesterday: 86 °F

Past Weeks' High & Low Weather Summary

 TemperatureHumidityPressure
High97 °F (Jul 16, 2:30 PM)100% (Jul 13, 2:30 AM)29.89 "Hg (Jul 13, 2:30 AM)
Low75 °F (Jul 13, 2:30 AM)41% (Jul 11, 2:30 PM)29.71 "Hg (Jul 17, 4:00 PM)
Average84 °F76%29.80 "Hg
* Reported Jul 10 11:00 PM — Jul 25 11:30 PM, Kuching, Weather by CustomWeather, © 2014

Note: Actual official high and low records may vary slightly from our data, if they occured in-between our weather recording intervals... More about our weather records

Advertising

Kuching weather history for previous 24 hours

 ConditionsComfort  
Time TempWeatherWind HumidityBarometerVisibility
11:30 PM
Jul 25
82 °FPassing clouds.1 mph79%29.86 "Hg5 mi
11:00 PM84 °FPassing clouds.3 mph74%29.86 "HgN/A
10:30 PM84 °FPassing clouds.2 mph79%29.86 "HgN/A
10:00 PM86 °FPassing clouds.5 mph75%29.83 "HgN/A
9:30 PM86 °FPassing clouds.5 mph75%29.83 "HgN/A
9:00 PM86 °FPassing clouds.3 mph70%29.83 "HgN/A
8:30 PM88 °FPassing clouds.3 mph62%29.80 "HgN/A
8:00 PM88 °FPassing clouds.3 mph62%29.80 "HgN/A
7:30 PM90 °FPassing clouds.3 mph59%29.77 "HgN/A
7:00 PM90 °FPassing clouds.3 mph59%29.77 "HgN/A
6:30 PM91 °FPartly sunny.3 mph56%29.77 "HgN/A
6:00 PM91 °FBroken clouds.7 mph56%29.74 "HgN/A
5:30 PM93 °FBroken clouds.5 mph56%29.74 "HgN/A
5:00 PM93 °FBroken clouds.7 mph53%29.74 "HgN/A
4:30 PM93 °FBroken clouds.7 mph53%29.74 "HgN/A
4:00 PM95 °FBroken clouds.6 mph47%29.74 "HgN/A
3:30 PM95 °FBroken clouds.7 mph47%29.74 "HgN/A
3:00 PM95 °FBroken clouds.8 mph47%29.74 "HgN/A
2:30 PM95 °FBroken clouds.6 mph50%29.77 "HgN/A
2:00 PM95 °FBroken clouds.8 mph47%29.77 "HgN/A
1:30 PM93 °FBroken clouds.7 mph49%29.80 "HgN/A
1:00 PM93 °FBroken clouds.6 mph53%29.80 "HgN/A
12:30 PM93 °FBroken clouds.7 mph53%29.83 "HgN/A
12:00 PM91 °FBroken clouds.8 mph56%29.86 "HgN/A
11:30 AM91 °FPartly sunny.9 mph56%29.86 "HgN/A
10:30 AM90 °FPartly sunny.10 mph59%29.86 "HgN/A
10:00 AM88 °FPartly sunny.9 mph62%29.86 "HgN/A
9:30 AM86 °FPartly sunny.8 mph66%29.86 "HgN/A
9:00 AM82 °FPartly sunny.5 mph79%29.86 "HgN/A
8:30 AM81 °FPartly sunny.5 mph79%29.86 "HgN/A
8:00 AM79 °FPartly sunny.3 mph84%29.86 "HgN/A
7:30 AM77 °FPartly sunny.3 mph89%29.86 "HgN/A
7:00 AM75 °FPartly sunny.2 mph94%29.83 "Hg4 mi
6:30 AM75 °FPassing clouds.3 mph94%29.83 "Hg4 mi
6:00 AM75 °FPassing clouds.2 mph100%29.83 "Hg4 mi
5:30 AM77 °FPassing clouds.2 mph94%29.83 "Hg4 mi
5:00 AM77 °FPassing clouds.2 mph94%29.83 "Hg4 mi
4:30 AM77 °FPassing clouds.2 mph94%29.83 "Hg4 mi
4:00 AM77 °FPassing clouds.2 mph94%29.83 "HgN/A
3:30 AM79 °FPassing clouds.3 mph89%29.83 "HgN/A
3:00 AM79 °FPassing clouds.3 mph89%29.80 "HgN/A
2:30 AM79 °FPassing clouds.3 mph94%29.83 "HgN/A
2:00 AM81 °FPartly cloudy.3 mph89%29.83 "HgN/A
1:30 AM82 °FPartly cloudy.3 mph84%29.83 "HgN/A
1:00 AM81 °FPartly cloudy.3 mph89%29.83 "HgN/A
12:30 AM82 °FPartly cloudy.2 mph84%29.83 "HgN/A
12:00 AM82 °FPartly cloudy.2 mph84%29.83 "HgN/A
Weather by CustomWeather, © 2014

See weather overviewHow to use our weather pages